Weather reports worldwide

Advertisment
Santa Cruz de Tenerife, Spain (60020): temperature & dewpoint: 13.08.2018 20:00:00 - 19.08.2018 20:00:00 (WEST)Santa Cruz de Tenerife, Spain (60020): wind speed: 13.08.2018 20:00:00 - 19.08.2018 20:00:00 (WEST)Santa Cruz de Tenerife, Spain (60020): wind direction: 13.08.2018 20:00:00 - 19.08.2018 20:00:00 (WEST)Santa Cruz de Tenerife, Spain (60020): reduced air pressure: 13.08.2018 20:00:00 - 19.08.2018 20:00:00 (WEST)Santa Cruz de Tenerife, Spain (60020): visibility: 13.08.2018 20:00:00 - 19.08.2018 20:00:00 (WEST)Santa Cruz de Tenerife, Spain (60020): precipitation: 13.08.2018 20:00:00 - 19.08.2018 20:00:00 (WEST)
Date & Time tt [°C] td [°C] ff [km/h] ff [kn] dd ppp [hPa] vv [km] rr [mm]
19.08.2018 20:00:00 24,6 15,2 16 9 WNW 1015,4 20 0,0
19.08.2018 19:00:00 26,0 16,0 21 11 WNW 1015,2 20 -
19.08.2018 18:00:00 27,2 16,5 21 11 WNW 1015,0 20 0,0
19.08.2018 17:00:00 27,7 16,0 18 10 WNW 1015,1 20 0,0
19.08.2018 16:00:00 28,5 16,7 15 8 WNW 1015,4 20 -
19.08.2018 15:00:00 29,0 16,2 11 6 W 1015,6 20 0,0
19.08.2018 14:00:00 28,0 16,9 9 5 SSE 1016,0 20 0,0
19.08.2018 13:00:00 27,9 14,5 8 4 ENE 1016,0 20 -
19.08.2018 12:00:00 27,1 14,1 15 8 NE 1016,7 20 0,0
19.08.2018 11:00:00 25,9 15,3 11 6 N 1016,7 20 0,0
19.08.2018 10:00:00 25,0 14,5 13 7 N 1016,3 20 -
19.08.2018 09:00:00 23,4 15,7 13 7 N 1016,0 20 0,0
19.08.2018 08:00:00 21,9 15,5 11 6 NNW 1015,6 20 0,0
19.08.2018 07:00:00 21,8 14,4 15 8 NNW 1015,1 20 -
19.08.2018 06:00:00 21,8 14,7 15 8 NNW 1015,0 20 0,0
19.08.2018 05:00:00 21,9 15,5 13 7 NNW 1015,0 20 0,0
19.08.2018 04:00:00 21,8 14,9 11 6 NNW 1015,7 20 -
19.08.2018 03:00:00 21,9 15,3 11 6 NNW 1015,6 20 0,0
19.08.2018 02:00:00 22,2 14,6 11 6 NNW 1015,8 20 0,0
19.08.2018 01:00:00 22,4 15,5 11 6 NNW 1016,0 20 -
19.08.2018 00:00:00 22,7 15,5 11 6 NNW 1016,1 20 0,0
18.08.2018 23:00:00 23,1 16,4 11 6 NW 1015,9 19 0,0
18.08.2018 22:00:00 23,4 15,4 9 5 N 1015,0 20 -
18.08.2018 21:00:00 23,5 15,8 15 8 NNW 1014,9 20 0,0
18.08.2018 20:00:00 24,1 15,8 16 9 NNW 1014,6 20 0,0
18.08.2018 19:00:00 25,2 15,8 26 14 NNW 1014,1 20 -
18.08.2018 18:00:00 26,0 16,0 26 14 NNW 1014,0 20 0,0
18.08.2018 17:00:00 26,3 15,7 26 14 NNW 1014,1 20 0,0
18.08.2018 16:00:00 26,5 16,4 26 14 NNW 1014,6 20 -
18.08.2018 15:00:00 27,1 16,4 16 9 N 1015,4 19 0,0
18.08.2018 14:00:00 27,2 16,5 21 11 N 1015,8 20 0,0
18.08.2018 13:00:00 27,0 16,6 15 8 N 1016,2 20 -
18.08.2018 12:00:00 26,9 15,6 9 5 ENE 1016,1 20 0,0
18.08.2018 11:00:00 25,2 14,9 13 7 N 1016,4 20 0,0
18.08.2018 10:00:00 25,1 15,7 8 4 N 1016,2 20 -
18.08.2018 09:00:00 23,2 15,8 13 7 N 1016,1 20 0,0
18.08.2018 08:00:00 22,5 16,1 4 2 NE 1015,7 20 0,0
18.08.2018 07:00:00 22,6 15,7 9 5 NNW 1015,7 20 -
18.08.2018 06:00:00 22,6 16,6 9 5 N 1015,6 20 0,0
18.08.2018 05:00:00 22,6 15,9 9 5 NNW 1015,6 20 0,0
18.08.2018 04:00:00 22,7 16,7 8 4 N 1015,7 20 -
18.08.2018 03:00:00 22,7 16,0 11 6 N 1016,2 20 0,0
18.08.2018 02:00:00 22,8 16,1 4 2 N 1017,0 20 0,0
18.08.2018 01:00:00 23,1 16,6 8 4 N 1017,4 20 -
18.08.2018 00:00:00 22,8 15,9 5 3 ENE 1017,6 20 0,0
17.08.2018 23:00:00 23,0 15,3 11 6 N 1017,7 20 0,0
17.08.2018 22:00:00 23,2 16,0 13 7 NW 1017,3 20 -
17.08.2018 21:00:00 23,5 16,0 15 8 NNW 1016,5 20 0,0
17.08.2018 20:00:00 24,3 16,3 16 9 N 1016,6 20 0,0
17.08.2018 19:00:00 25,8 15,8 15 8 N 1016,5 20 -
17.08.2018 18:00:00 26,6 15,9 18 10 N 1016,7 20 0,0
17.08.2018 17:00:00 27,2 15,9 11 6 N 1017,0 20 0,0
17.08.2018 16:00:00 27,1 16,1 15 8 N 1017,4 20 -
17.08.2018 15:00:00 27,0 15,1 11 6 N 1017,9 20 0,0
17.08.2018 14:00:00 26,3 16,2 15 8 NNW 1018,4 20 0,0
17.08.2018 13:00:00 25,5 16,4 21 11 N 1019,1 25 -
17.08.2018 12:00:00 26,0 15,1 13 7 NNW 1019,5 20 0,0
17.08.2018 11:00:00 24,3 16,0 15 8 N 1019,4 20 0,0
17.08.2018 10:00:00 24,3 15,0 11 6 N 1019,5 20 -
17.08.2018 09:00:00 23,4 14,7 13 7 NNW 1019,3 20 0,0
17.08.2018 08:00:00 22,9 16,2 11 6 NNE 1019,2 20 0,0
17.08.2018 07:00:00 22,6 16,8 13 7 N 1018,9 10 -
17.08.2018 06:00:00 23,0 15,8 11 6 N 1018,8 20 0,0
17.08.2018 05:00:00 23,0 16,1 13 7 N 1018,9 20 0,0
17.08.2018 04:00:00 22,9 16,0 16 9 N 1019,1 20 -
17.08.2018 03:00:00 22,8 16,1 9 5 N 1019,3 20 0,0
17.08.2018 02:00:00 21,9 18,1 5 3 NE 1019,8 18 0,0
17.08.2018 01:00:00 22,8 17,7 5 3 NE 1020,4 20 -
17.08.2018 00:00:00 23,0 16,1 5 3 NE 1020,4 20 0,0
16.08.2018 23:00:00 23,0 15,8 13 7 N 1020,6 20 0,0
16.08.2018 22:00:00 22,9 15,7 13 7 NNW 1020,1 20 -
16.08.2018 21:00:00 23,0 16,1 18 10 N 1019,7 20 0,0
16.08.2018 20:00:00 23,5 16,0 21 11 NNW 1019,2 20 0,0
16.08.2018 19:00:00 25,5 16,1 18 10 NNW 1018,9 20 -
16.08.2018 18:00:00 26,9 16,8 8 4 ENE 1018,7 19 0,0
16.08.2018 17:00:00 27,8 17,9 15 8 NW 1018,8 20 0,0
16.08.2018 16:00:00 28,3 17,5 13 7 NNW 1019,0 20 -
16.08.2018 15:00:00 27,6 16,6 9 5 N 1019,7 20 0,0
16.08.2018 14:00:00 26,8 17,3 13 7 NNW 1020,6 20 0,0
16.08.2018 13:00:00 25,9 16,2 18 10 N 1021,2 20 -
16.08.2018 12:00:00 26,0 16,5 16 9 N 1021,2 20 0,0
16.08.2018 11:00:00 25,3 16,2 18 10 N 1021,1 20 0,0
16.08.2018 10:00:00 25,4 16,5 13 7 N 1020,6 20 -
16.08.2018 09:00:00 23,3 16,3 8 4 NE 1020,3 20 0,0
16.08.2018 08:00:00 22,4 15,5 5 3 N 1020,0 20 0,0
16.08.2018 07:00:00 22,5 15,8 11 6 NNW 1019,7 20 -
16.08.2018 06:00:00 23,0 16,5 15 8 NNW 1019,4 20 0,0
16.08.2018 05:00:00 23,0 16,5 5 3 N 1019,2 20 0,0
16.08.2018 04:00:00 22,9 16,7 8 4 SE 1019,5 20 -
16.08.2018 03:00:00 23,2 16,0 9 5 WNW 1019,9 20 0,0
16.08.2018 02:00:00 23,2 17,0 4 2 NE 1020,2 20 0,0
16.08.2018 01:00:00 23,4 18,1 8 4 E 1020,7 20 -
16.08.2018 00:00:00 23,9 16,2 8 4 W 1020,8 20 0,0
15.08.2018 23:00:00 24,0 16,8 8 4 NNE 1020,6 20 0,0
15.08.2018 22:00:00 24,6 15,8 9 5 N 1020,1 20 -
15.08.2018 21:00:00 25,3 15,9 5 3 E 1019,2 20 0,0
15.08.2018 20:00:00 26,6 14,7 11 6 N 1018,7 20 0,0
15.08.2018 19:00:00 29,3 15,1 9 5 NE 1018,6 20 -
15.08.2018 18:00:00 30,6 15,1 11 6 WNW 1018,0 20 0,0
15.08.2018 17:00:00 30,4 15,7 13 7 SSE 1018,0 20 0,0
15.08.2018 16:00:00 30,6 15,8 9 5 SSE 1017,9 20 -
15.08.2018 15:00:00 29,8 16,9 9 5 S 1018,4 20 0,0
15.08.2018 14:00:00 29,9 17,7 11 6 SE 1018,2 20 0,0
15.08.2018 13:00:00 28,2 19,2 8 4 S 1018,7 20 -
15.08.2018 12:00:00 27,0 18,0 9 5 E 1019,3 20 0,0
15.08.2018 11:00:00 25,9 18,3 9 5 E 1019,5 20 0,0
15.08.2018 10:00:00 25,4 18,8 11 6 E 1019,4 19 -
15.08.2018 09:00:00 23,9 19,2 11 6 SSW 1019,4 15 0,0
15.08.2018 08:00:00 22,9 18,7 11 6 WSW 1018,7 16 0,0
15.08.2018 07:00:00 22,8 18,3 9 5 SW 1017,9 17 -
15.08.2018 06:00:00 22,8 18,8 4 2 S 1017,5 14 0,0
15.08.2018 05:00:00 23,1 18,2 8 4 WSW 1018,2 17 0,0
15.08.2018 04:00:00 23,3 18,0 4 2 ESE 1017,9 19 -
15.08.2018 03:00:00 23,6 18,0 4 2 E 1017,8 19 0,0
15.08.2018 02:00:00 23,8 18,0 5 3 E 1018,5 19 0,0
15.08.2018 01:00:00 24,5 17,5 4 2 SE 1018,8 19 -
15.08.2018 00:00:00 25,3 17,2 8 4 SSW 1018,6 12 0,0
14.08.2018 23:00:00 26,1 16,6 4 2 S 1018,0 19 0,0
14.08.2018 22:00:00 26,1 16,9 5 3 S 1016,9 20 -
14.08.2018 21:00:00 26,6 16,2 5 3 SW 1016,4 20 0,0
14.08.2018 20:00:00 27,6 15,6 5 3 SSE 1016,0 20 0,0
14.08.2018 19:00:00 28,1 17,6 8 4 E 1016,2 19 -
14.08.2018 18:00:00 29,2 17,1 8 4 ESE 1016,4 20 0,0
14.08.2018 17:00:00 29,1 17,3 13 7 E 1016,5 20 0,0
14.08.2018 16:00:00 28,6 17,5 13 7 E 1016,6 20 -
14.08.2018 15:00:00 28,9 18,4 11 6 E 1016,4 20 0,0
14.08.2018 14:00:00 27,4 18,9 13 7 E 1016,6 19 0,0
14.08.2018 13:00:00 26,8 19,4 13 7 E 1017,0 19 -
14.08.2018 12:00:00 26,8 19,4 13 7 E 1017,2 18 0,0
14.08.2018 11:00:00 26,7 19,8 8 4 E 1016,9 16 0,0
14.08.2018 10:00:00 26,0 19,9 11 6 ENE 1016,3 16 -
14.08.2018 09:00:00 24,6 19,9 9 5 ESE 1016,3 14 0,0
14.08.2018 08:00:00 23,0 20,1 2 1 SE 1016,0 12 0,0
14.08.2018 07:00:00 23,1 20,2 5 3 WSW 1015,5 12 -
14.08.2018 06:00:00 23,0 20,3 2 1 ESE 1015,1 12 0,0
14.08.2018 05:00:00 22,9 20,4 4 2 SSW 1015,2 11 0,0
14.08.2018 04:00:00 22,9 20,4 4 2 WSW 1014,9 11 -
14.08.2018 03:00:00 23,0 20,5 8 4 ESE 1015,1 10 0,0
14.08.2018 02:00:00 23,1 20,6 2 1 NW 1015,2 10 0,0
14.08.2018 01:00:00 23,2 20,9 4 2 S 1015,4 9 -
14.08.2018 00:00:00 23,4 20,9 5 3 WSW 1015,2 9 0,0
13.08.2018 23:00:00 24,0 20,9 4 2 S 1015,0 10 0,0
13.08.2018 22:00:00 23,9 20,8 9 5 WSW 1014,4 11 -
13.08.2018 21:00:00 23,9 21,2 11 6 S 1013,5 11 0,0
13.08.2018 20:00:00 24,2 20,7 11 6 ENE 1012,9 10 1,0

tt = temperature
td = dewpoint
ff = wind speed
dd = wind direction
ppp = reduced air pressure
vv = visibility
rr = precipitation

Next stations